User: anonymous   Login
Location: Aucun
(42.9667°N, 0.1667°W)
Time: 16:09:35
(UTC+00:00)
Language:

Cosmos 2233 Rocket - Orbit

View from above orbital plane
View from above orbital plane
View from above satellite
View from above satellite

Ground track
Ground track

The orbit data is extracted from the following two-line orbital elements,

1 22488U 93008B   20151.67129537 -.00000062 +00000-0 -77948-4 0  9992
2 22488 082.9418 355.8366 0026750 083.1876 341.9227 13.77711192372477
Epoch (UTC): 30 May 2020 16:06:39
Eccentricity: 0.0026750
inclination: 82.9418°
perigee height: 952 km
apogee height: 991 km
right ascension of ascending node: 355.8366°
argument of perigee: 83.1876°
revolutions per day: 13.77711192
mean anomaly at epoch: 341.9227°
orbit number at epoch: 37247

The dashed part of the orbit path shows where the satellite is in the earth's shadow,  

DLR